Temp
17 17 18 19 19 20 20 21 21 22 23 23 24 25 25 25 24 19 28 31 28 27 25 27 28 29 30 32 32 34 35 37 38 38 38 40 39 40 38 37 35 35 35 35 32
16 16 18 18 19 19 20 20 21 22 22 23 24 24 25 25 22 28 30 29 29 26 28 29 31 30 32 33 34 34 37 38 39 39 38 39 39 39 38 37 36 35 35 33 30
16 16 17 18 18 19 20 21 21 22 22 23 24 24 25 25 29 35 30 29 29 27 30 31 32 32 33 35 35 36 35 38 38 39 39 39 39 40 39 38 38 36 34 33 31
15 16 16 17 18 19 19 20 21 22 22 23 24 24 25 22 33 30 29 30 27 27 30 31 33 32 34 34 36 34 37 37 38 38 38 38 39 39 39 40 40 39 36 34 33
15 16 16 17 17 18 19 20 21 21 22 24 24 24 24 30 33 27 29 27 24 28 31 33 33 34 34 36 36 35 36 38 38 38 38 38 38 39 39 40 39 38 36 34 34
15 15 16 17 17 18 19 19 21 22 23 24 24 24 26 30 29 27 26 24 28 30 32 33 34 34 34 34 35 36 37 37 37 38 38 37 38 39 40 40 39 36 36 36 35
14 15 16 17 18 19 19 21 21 23 23 24 24 22 28 31 28 27 28 28 29 30 33 32 33 33 35 34 36 35 34 36 38 38 38 38 38 39 40 39 38 37 36 36 35
15 16 16 16 17 19 20 21 22 23 23 24 22 22 30 28 28 28 29 30 29 30 31 32 32 33 33 34 34 34 36 35 38 39 38 37 37 40 40 40 38 39 38 36 35
15 15 15 16 17 18 20 21 21 21 22 22 22 26 31 28 29 30 30 31 31 30 30 30 32 33 34 32 34 35 34 36 37 39 37 37 36 39 40 39 38 39 39 37 36
13 14 13 15 17 19 20 21 21 21 21 20 22 27 31 31 30 30 30 30 31 32 31 30 32 33 33 34 33 35 35 36 36 37 38 36 37 38 39 39 39 39 39 38 36
12 12 13 15 17 20 21 23 27 28 28 28 29 28 31 29 29 30 30 30 31 31 32 32 32 32 33 35 34 35 35 35 36 37 36 36 36 37 38 39 39 40 40 39 37
12 13 13 16 18 20 21 25 21 20 26 28 27 27 28 27 31 31 30 31 31 31 33 32 31 33 35 34 34 34 34 34 35 36 36 36 36 37 37 38 39 40 40 39 38
13 13 14 18 19 19 20 20 18 19 26 30 30 30 31 29 31 32 31 32 31 32 33 32 34 34 33 32 32 33 33 34 34 35 36 35 35 36 37 38 39 39 40 40 38
13 13 14 17 19 18 22 18 18 18 30 30 31 31 31 31 31 32 31 32 31 32 32 33 34 33 33 32 33 32 34 34 34 34 33 37 33 35 37 37 38 39 40 40 38
13 13 14 14 15 22 19 18 18 21 31 30 31 31 32 31 31 32 31 31 31 32 31 33 32 32 32 33 33 32 34 34 34 34 34 34 34 35 37 36 38 39 41 40 40
14 15 15 13 14 18 17 18 20 28 30 29 30 30 31 32 32 32 32 31 32 31 32 32 33 32 32 33 33 34 33 33 33 33 32 34 34 35 36 37 38 40 40 41 41
15 17 17 14 22 17 17 23 29 30 28 28 29 30 31 31 31 31 32 31 31 30 32 33 33 34 33 32 34 33 32 31 30 31 31 34 34 35 36 37 38 38 39 40 40
16 17 17 17 16 16 20 28 27 27 28 28 28 30 30 30 31 31 31 31 31 31 31 31 31 33 33 33 33 33 33 31 28 28 29 31 32 34 37 38 37 37 38 38 39
17 18 19 19 17 17 26 28 28 27 27 27 29 29 30 30 29 31 31 30 30 30 29 30 31 33 34 34 34 32 31 34 31 32 31 30 32 36 37 37 37 36 36 36 34
14 20 22 18 17 21 27 25 27 27 27 27 27 28 28 29 30 30 30 30 30 31 31 30 29 33 33 34 34 33 34 31 31 28 29 30 31 33 35 36 36 35 35 33 32
17 24 21 19 19 26 27 27 26 27 26 27 27 27 28 28 29 29 30 30 30 30 31 31 30 31 33 33 33 33 32 32 33 31 29 31 32 36 35 35 34 34 33 31 31
20 25 20 20 25 26 27 26 19 27 27 27 27 27 27 27 28 28 29 29 29 30 29 30 30 29 31 33 32 33 32 32 32 30 32 32 32 37 35 35 32 32 31 28 28
21 23 21 21 26 26 25 26 25 26 26 27 27 27 27 27 26 28 28 30 29 29 28 29 29 29 31 32 32 32 31 32 32 31 30 31 32 36 33 33 30 29 29 27 26
20 24 24 24 23 24 25 26 25 25 26 26 26 27 27 27 28 27 27 29 29 29 24 27 28 28 29 30 31 30 31 31 29 30 31 32 32 34 32 29 27 26 26 26 28
20 22 20 24 24 24 23 24 25 25 25 26 26 26 26 25 27 27 27 28 28 28 28 28 26 28 29 30 30 30 30 31 30 31 29 31 31 33 26 23 23 24 24 24 25
20 21 21 22 21 22 19 24 24 25 25 26 25 26 26 25 26 25 26 26 26 27 27 28 26 27 27 29 30 29 30 30 30 30 30 30 30 26 24 26 24 26 27 25 23
16 16 19 18 22 22 24 24 24 23 25 25 24 24 25 25 25 25 26 26 26 26 25 25 26 26 26 29 29 28 30 30 29 29 28 28 27 25 25 25 25 25 26 26 25
Height
823 819 816 813 809 806 802 798 795 792 789 787 783 781 778 774 770 769 764 759 759 761 766 771 775 775 775 768 766 759 764 758 754 753 747 727 736 723 728 734 741 741 743 749 758
823 819 815 812 808 804 800 796 792 789 787 784 781 779 776 773 770 764 759 756 757 759 762 764 766 769 768 764 760 762 759 749 733 735 741 733 734 729 733 736 741 743 743 748 759
823 819 815 811 806 801 797 793 789 785 782 780 778 776 775 772 766 750 754 754 755 759 764 765 765 765 764 756 755 751 763 739 737 731 731 734 732 723 729 737 729 738 743 747 753
822 818 814 809 805 800 795 790 786 781 777 775 774 773 773 773 771 754 754 755 757 762 764 763 761 765 765 764 749 765 745 744 738 732 734 737 727 728 725 722 713 719 729 740 746
821 817 812 808 803 798 792 787 781 777 774 771 769 770 771 765 756 755 755 756 761 763 761 759 761 760 764 754 752 758 748 738 733 731 732 730 732 727 724 711 713 718 725 733 737
819 815 810 805 799 794 789 783 778 774 770 768 766 767 768 768 756 756 756 757 759 760 758 757 755 753 757 757 758 746 744 740 734 732 731 737 729 721 715 708 713 720 724 727 730
818 813 808 803 797 790 784 778 773 769 767 765 762 764 763 755 756 757 757 758 758 758 755 756 756 758 749 756 742 748 757 742 734 729 730 725 734 727 708 712 715 719 722 724 727
815 811 806 800 794 786 779 773 768 766 765 763 761 765 755 754 755 755 756 757 758 758 758 757 758 757 755 748 751 756 748 760 727 720 721 732 746 712 704 710 716 715 715 719 723
813 809 803 796 790 782 776 770 767 765 765 764 764 762 751 752 752 751 752 751 753 754 755 757 756 753 750 763 761 748 764 751 739 716 727 732 739 713 704 711 715 711 708 712 716
811 807 802 795 789 780 773 769 767 765 765 765 764 764 749 750 750 750 751 751 750 749 753 755 752 754 753 756 769 756 750 743 745 727 720 732 730 717 710 709 708 705 702 704 709
811 806 800 794 787 780 771 769 766 763 760 759 756 755 748 750 748 747 748 748 749 748 754 744 756 756 748 739 741 742 744 745 732 723 730 733 728 719 712 706 703 698 695 697 701
810 804 798 792 784 780 777 775 786 788 772 758 757 755 752 752 747 742 746 746 749 753 742 750 758 738 731 734 741 744 748 745 732 723 729 727 726 713 710 704 695 692 688 688 694
808 803 796 790 785 785 784 785 787 786 773 755 752 750 747 750 747 742 743 740 746 747 743 750 733 724 736 743 747 740 743 741 738 725 715 724 728 716 702 693 688 686 679 680 685
806 802 796 790 788 787 785 787 785 784 764 761 750 748 745 744 748 738 739 742 743 746 738 737 722 729 734 741 735 743 723 728 734 735 747 711 746 717 704 700 687 681 674 675 678
806 801 795 791 791 787 788 786 784 783 774 760 751 746 741 746 743 739 738 739 746 741 745 734 735 735 738 733 725 735 720 721 723 730 732 725 736 716 700 706 692 678 668 668 668
803 798 792 792 791 789 786 785 784 776 777 764 753 753 747 742 741 735 736 737 733 740 733 733 719 729 726 719 718 717 725 724 727 729 743 723 727 718 707 697 684 670 663 663 662
800 795 791 790 788 788 786 782 773 770 765 770 764 753 752 751 745 743 741 743 745 755 740 728 718 713 718 731 717 721 732 753 755 747 747 712 719 708 691 682 678 677 668 662 662
797 793 791 789 789 787 785 772 785 774 771 762 762 756 758 753 747 745 744 747 741 743 744 744 746 722 712 723 725 719 725 744 772 767 757 725 734 713 682 670 672 671 670 667 664
796 794 792 791 787 787 778 774 770 774 770 770 761 763 759 753 756 748 747 749 746 743 761 749 739 713 710 704 708 725 740 712 740 731 744 743 726 690 680 674 671 675 672 671 672
798 793 788 788 786 785 774 782 771 769 769 768 772 766 769 762 758 752 751 746 749 740 735 741 755 712 710 704 704 712 707 734 731 766 760 740 727 714 694 683 680 679 675 674 673
798 786 787 787 786 775 772 769 771 766 768 770 770 769 765 767 761 757 753 744 745 744 735 733 741 730 711 714 714 714 719 719 716 731 753 736 718 677 683 679 685 677 677 676 674
797 784 786 786 779 773 770 773 784 767 764 765 766 765 767 765 763 760 758 751 744 742 747 736 742 746 726 701 706 706 714 713 725 734 720 719 713 665 676 677 684 680 679 684 680
793 785 785 784 775 770 773 771 770 767 766 765 765 764 762 765 773 759 755 744 744 746 749 744 741 750 730 713 709 714 714 713 712 713 727 728 713 664 678 680 689 688 685 685 687
797 782 778 779 778 775 774 771 772 768 768 766 765 761 763 764 758 764 758 746 744 745 753 748 745 751 749 729 719 729 717 716 724 727 713 703 699 680 689 700 703 700 696 691 684
796 785 791 774 777 777 779 775 771 771 767 764 764 764 767 772 762 761 753 750 744 742 743 743 759 743 732 724 722 721 720 715 719 713 725 705 701 683 708 718 716 709 703 698 694
796 790 790 782 787 783 786 774 773 767 771 766 769 765 764 769 762 768 761 760 757 746 745 742 755 742 742 727 717 723 714 710 712 711 712 706 706 707 714 709 714 704 699 701 706
804 802 796 787 780 781 770 772 771 773 766 764 768 770 766 761 764 761 755 751 749 752 753 755 751 746 746 723 720 731 710 705 712 710 718 721 714 716 712 713 715 712 708 703 705
Wind_Speed
25 25 25 25 25 25 25 25 25 24 22 21 19 18 18 20 22 8 9 6 8 21 23 19 14 12 13 7 9 7 6 5 1 3 4 5 9 5 3 6 8 8 3 5 20
26 27 26 26 27 27 27 27 28 27 24 21 18 16 15 19 11 15 10 8 8 31 26 25 18 17 8 8 5 8 8 6 4 5 8 10 10 11 6 7 10 10 8 13 24
26 26 26 27 28 28 29 28 30 30 24 21 18 15 13 13 9 3 1 8 12 27 18 15 12 14 12 8 9 6 13 8 11 10 12 13 12 8 8 10 11 14 14 17 26
26 27 28 28 28 29 29 28 32 27 23 23 20 13 9 3 5 3 3 1 18 20 17 14 14 15 12 11 11 11 15 13 17 15 16 15 16 14 8 13 2 10 18 21 23
26 27 28 29 30 30 30 32 28 24 25 22 19 10 2 7 10 1 2 10 22 16 20 15 14 13 13 8 11 15 19 17 17 14 13 16 17 17 17 9 7 9 20 22 22
26 28 29 31 31 33 32 33 27 26 21 16 14 4 7 11 3 2 8 20 16 16 18 17 8 8 11 14 14 14 15 17 16 19 14 17 18 13 15 3 10 11 17 19 22
26 28 30 31 32 30 34 27 28 22 10 12 9 6 8 9 2 6 10 14 10 14 10 15 11 10 4 12 10 13 17 18 19 17 18 15 21 17 14 2 9 12 13 16 19
25 27 29 32 33 34 28 28 22 6 4 8 3 3 4 3 3 12 12 12 12 13 14 13 11 14 17 13 14 16 13 14 16 13 11 10 17 14 4 6 7 8 11 15 20
24 26 31 34 32 35 29 23 6 3 2 3 0 5 2 3 5 3 9 12 10 10 11 8 11 14 12 15 16 15 15 18 15 10 6 12 18 16 5 10 13 14 12 14 18
26 27 33 34 36 26 27 5 4 2 3 3 4 5 4 3 4 4 5 6 3 6 8 12 9 13 15 15 18 20 19 19 17 17 14 15 19 15 19 18 17 16 15 12 19
28 31 33 35 38 20 21 5 4 5 1 5 5 4 2 11 3 4 5 12 16 10 14 15 14 20 22 21 22 23 23 23 19 10 17 15 20 17 16 21 19 19 14 14 19
29 30 33 33 25 16 11 5 6 5 6 2 5 7 6 4 3 3 5 7 10 15 13 11 16 20 22 19 22 24 24 24 22 16 20 18 21 16 17 22 17 21 14 14 13
28 28 33 36 13 10 8 7 5 4 6 2 3 5 5 4 4 1 5 2 9 13 14 16 18 4 12 18 23 25 23 23 24 20 18 17 22 21 15 16 16 17 15 13 15
26 28 33 36 3 10 1 2 11 4 5 3 3 3 3 5 3 2 3 6 4 8 7 12 13 16 16 17 18 21 20 24 22 21 17 17 14 17 13 17 14 15 13 13 14
27 29 34 22 10 4 3 10 5 3 5 3 2 2 8 4 7 4 2 5 8 9 6 9 6 11 15 18 16 19 19 22 20 20 19 23 12 13 13 14 15 17 15 13 14
27 30 30 6 4 5 8 9 3 5 2 2 3 4 3 2 2 3 2 5 4 8 9 14 11 9 13 9 12 14 15 15 14 14 15 16 18 15 13 8 13 16 13 11 9
29 28 15 3 4 8 8 4 5 4 3 3 3 6 6 3 1 5 5 5 5 6 5 14 7 9 13 14 14 10 14 12 13 13 13 15 13 8 10 14 8 12 13 9 7
28 19 5 3 7 8 4 5 5 2 1 2 4 8 4 6 1 5 3 3 8 7 10 7 10 4 9 15 14 7 14 10 14 10 9 20 10 11 14 9 5 5 7 9 13
24 7 3 4 4 4 6 6 3 1 2 5 6 6 2 0 4 4 3 4 6 10 7 9 6 4 8 12 11 6 6 9 10 12 10 13 22 17 13 12 7 11 10 10 11
15 7 2 3 4 7 5 3 2 1 3 3 3 2 3 3 5 4 2 5 6 10 8 5 10 7 6 6 10 10 4 8 6 11 14 9 17 13 14 17 10 14 11 11 10
5 4 3 5 4 6 6 1 3 2 3 3 1 3 3 4 6 6 2 1 11 12 12 9 7 13 9 7 9 7 12 11 13 8 15 11 11 11 12 10 13 10 11 11 10
5 4 2 4 5 2 5 1 1 3 3 2 3 3 3 4 7 4 5 5 10 14 11 7 7 10 17 4 5 6 5 9 10 11 13 14 17 10 1 6 7 8 8 8 6
5 4 0 3 5 6 3 5 3 4 2 3 4 2 1 4 5 3 7 6 6 14 9 9 7 10 14 11 9 4 3 7 8 10 16 16 13 4 2 3 7 9 10 6 5
4 3 4 4 3 7 4 6 5 3 5 3 5 6 6 9 6 7 12 6 9 14 4 6 11 12 14 17 13 11 7 5 9 11 16 13 16 19 9 10 10 10 9 10 6
2 1 3 1 4 6 5 2 7 6 4 5 5 6 6 8 11 13 9 14 15 7 6 5 12 16 15 17 17 17 15 15 13 13 12 14 17 19 9 10 10 7 5 8 10
4 4 3 3 3 6 5 8 12 6 5 6 8 4 6 8 9 11 14 14 16 14 10 13 12 14 17 20 21 14 16 13 14 13 13 15 17 7 4 4 5 5 10 9 8
0 3 4 4 5 6 8 8 6 3 8 8 4 7 9 6 11 16 18 18 19 19 17 15 11 12 16 16 17 14 17 8 8 8 10 14 10 7 3 5 10 10 10 13 13
Wind_Direction
10 6 1 359 357 353 349 347 344 340 337 333 329 328 328 323 321 308 258 240 196 167 151 155 172 182 194 238 242 257 256 248 247 330 5 23 336 4 340 231 205 181 146 107 153
3 0 356 353 351 347 343 340 338 334 331 328 323 319 319 322 299 270 258 229 206 165 165 169 177 175 201 233 224 247 274 298 348 324 318 319 319 313 263 225 197 190 146 154 156
360 355 352 348 345 342 339 335 332 328 323 316 315 313 319 323 277 115 18 205 187 168 177 183 183 191 224 223 213 233 264 322 301 305 315 311 302 324 269 241 223 203 175 164 166
354 352 348 344 341 339 335 331 328 322 318 312 311 307 315 275 292 77 35 170 171 169 183 185 184 207 234 228 226 256 251 265 286 300 304 306 316 305 289 285 6 204 168 178 178
348 347 344 342 339 336 332 328 324 322 316 310 305 297 258 233 255 9 320 160 163 189 192 197 204 223 253 255 259 247 269 277 276 279 289 304 299 301 298 274 175 174 170 184 186
344 342 340 339 337 334 330 325 323 317 311 309 308 256 231 251 64 136 155 165 185 194 208 211 225 234 286 271 268 278 289 284 277 279 278 286 288 289 291 315 189 193 192 193 194
339 340 339 337 335 333 329 327 323 319 313 317 302 157 235 254 92 136 139 172 185 205 212 220 244 248 266 261 268 270 271 274 264 262 263 275 276 257 262 209 203 206 213 212 205
336 337 337 337 338 334 331 330 326 331 328 350 121 179 255 195 217 223 223 217 230 243 247 256 253 257 256 262 271 259 271 272 267 250 260 241 259 258 17 274 248 263 241 223 212
335 337 337 338 341 336 331 332 350 27 326 11 194 255 133 189 241 237 224 233 204 217 223 234 216 231 228 240 256 237 256 261 260 277 262 251 270 271 274 269 276 275 269 232 217
336 340 339 340 341 338 337 1 1 2 312 267 254 229 202 9 319 260 211 211 243 170 195 203 220 231 227 238 245 251 242 247 258 273 257 261 266 264 273 276 270 263 273 244 226
338 339 338 339 342 344 351 290 257 178 231 337 337 300 13 330 268 203 228 228 232 231 234 203 231 234 243 243 259 268 269 272 283 257 274 265 278 275 277 272 262 261 258 250 230
338 339 339 341 343 357 7 49 50 338 305 222 286 279 275 295 280 176 176 211 200 231 227 234 243 256 258 258 258 253 261 260 263 257 271 275 271 278 276 268 264 259 254 248 219
340 341 339 343 348 16 31 75 353 309 257 169 277 295 356 293 335 49 216 248 246 253 250 245 263 286 256 245 247 248 251 259 256 261 243 266 270 267 252 245 249 250 245 247 221
341 341 340 340 359 344 61 343 330 220 250 93 161 109 263 294 229 238 235 274 231 293 278 260 286 277 240 245 255 262 253 246 260 252 252 252 275 276 283 272 257 247 226 229 212
339 339 335 338 304 300 341 325 319 230 234 55 63 1 315 299 340 127 311 210 272 280 256 274 296 282 254 260 271 272 276 266 247 252 254 253 255 259 261 263 261 249 225 210 200
337 337 331 344 287 284 318 320 227 230 154 145 316 325 318 172 100 292 244 228 287 272 253 270 280 261 276 281 271 281 269 253 269 268 253 237 255 265 258 272 271 233 225 228 217
336 335 330 305 350 315 316 239 249 272 150 51 345 328 317 324 282 29 39 63 341 296 313 321 284 240 236 263 260 238 243 244 233 226 242 245 263 265 288 277 272 294 289 292 277
336 334 312 280 308 313 264 242 257 51 9 356 304 289 266 345 210 341 295 54 47 343 304 330 328 158 206 232 269 257 259 270 286 279 328 344 220 246 236 262 304 301 294 292 282
338 331 268 310 299 309 260 245 16 322 347 323 275 255 181 133 295 308 356 31 36 23 340 312 307 325 266 253 239 142 236 305 247 263 274 216 232 269 254 247 47 345 339 327 321
332 302 224 306 296 272 255 331 180 357 314 249 289 300 284 2 296 318 300 80 4 357 345 327 296 315 309 278 227 261 182 214 193 255 248 240 273 279 280 279 333 321 341 338 337
291 280 98 336 283 241 265 37 188 136 269 254 272 273 291 317 315 310 332 12 16 347 322 309 269 302 271 232 293 215 221 242 272 222 257 270 259 259 253 315 315 330 351 349 340
296 267 55 320 245 250 226 199 64 221 187 218 271 290 285 302 288 286 293 328 2 338 326 16 298 292 296 331 283 269 306 294 270 234 242 270 278 303 254 286 332 347 354 5 349
302 292 14 271 254 213 162 217 252 239 215 219 231 239 304 286 281 263 312 329 322 332 342 338 297 299 266 193 200 248 334 298 269 257 267 278 278 166 129 218 355 357 1 23 36
281 267 162 217 299 295 226 225 224 196 255 262 290 260 256 261 227 284 296 307 308 305 76 272 281 279 287 319 323 296 285 278 279 285 293 279 277 273 36 360 355 351 358 352 67
242 73 355 270 192 261 262 310 238 224 218 232 210 243 287 281 277 272 290 307 313 298 255 291 282 284 279 281 287 285 286 284 266 288 277 297 303 298 21 351 343 348 5 30 37
298 296 181 270 250 248 187 237 250 218 245 207 256 320 289 268 292 306 314 303 303 300 306 307 285 284 283 277 272 275 272 272 276 273 277 276 283 34 20 307 53 20 58 71 65
357 266 281 134 216 239 236 250 247 244 229 262 280 298 278 337 334 301 290 284 276 282 283 280 278 281 273 285 286 264 265 263 292 266 322 287 1 349 21 69 29 18 35 46 57